Content
SEND FEEDBACK

Daily
Averages
Monthly
Summary
United States of America

CHAMPAIGN, ILLINOIS


Home > North America > United States > Illinois
Elevation: 736 feet     Latitude: 40 05N     Longitude: 088 13W

WEATHER
 
SELECT A DAY
Number of Records: 195,779;   Date Range: 1/1/95 - 8/12/14
 
SHARE

PRINT THIS DATA

[ ← Previous Day ]
WEATHER ALMANAC - MARCH 23, 2013
[ Next Day → ]
[ °C ]   °F
Weather ElementAverageHighLow
Temperature40.3 °F50 °F (2:53 pm)33.1 °F (6:53 am)
Dewpoint23.1 °F25 °F (5:53 pm)21 °F (2:53 am)
Humidity51.9 %70 % (11:53 pm)32 % (2:53 pm)
Barometer30.02 in30.09 in (8:53 am)29.94 in (8:53 pm)
Wind Speed10.1 mph16.1 mph (9:53 pm)
Wind Gust24.2 mph (11:53 pm)
Weather ElementAverage
Visibility10 mi
Wind DirectionNE (43.9 °)

Weather ElementTotal
Precipitation---
Heating Degree Days23.5 (Base 65)
Averaged from 23 records on March 23, 2013
WEATHER CONDITIONS BREAKOUT
WIND DIRECTION BREAKOUT
WEATHER BY HOUR - MARCH 23, 2013
[ °C ]   °F
Local TimeTemperatureDewpointHumidityBarometerVisibilityWind DirectionWind SpeedGust SpeedPrecipitationEventsConditions
1:53 AM35.1 °F24.1 °F64 %30.05 in10.0 miCalmOvercast
2:53 AM36.0 °F21.0 °F55 %30.04 in10.0 miNNE (30°)9.2 mphOvercast
3:53 AM35.1 °F21.9 °F59 %30.03 in10.0 miENE (60°)6.9 mphOvercast
4:53 AM35.1 °F21.0 °F57 %30.03 in10.0 miNE (50°)9.2 mphOvercast
5:53 AM34.0 °F21.9 °F61 %30.05 in10.0 miENE (60°)8.1 mphOvercast
6:53 AM33.1 °F23.0 °F66 %30.06 in10.0 miNE (50°)9.2 mphOvercast
7:53 AM34.0 °F23.0 °F64 %30.07 in10.0 miENE (70°)10.4 mphOvercast
8:53 AM36.0 °F23.0 °F59 %30.09 in10.0 miNE (50°)9.2 mphOvercast
9:53 AM39.9 °F23.0 °F51 %30.09 in10.0 miENE (60°)9.2 mphClear
10:53 AM44.1 °F23.0 °F43 %30.09 in10.0 miNE (50°)10.4 mphClear
11:53 AM45.0 °F21.0 °F39 %30.07 in10.0 miNE (50°)6.9 mphClear
12:53 PM46.9 °F23.0 °F39 %30.07 in10.0 miNE (40°)8.1 mphClear
1:53 PM48.0 °F21.9 °F36 %30.06 in10.0 miNE (40°)8.1 mph17.3 mphClear
2:53 PM50.0 °F21.0 °F32 %30.02 in10.0 miVariable5.8 mphClear
3:53 PM50.0 °F23.0 °F35 %30.00 in10.0 miNNE (30°)11.5 mphClear
4:53 PM48.9 °F24.1 °F38 %29.97 in10.0 miNE (50°)12.7 mph21.9 mphClear
5:53 PM46.9 °F25.0 °F42 %29.97 in10.0 miENE (60°)12.7 mphClear
6:53 PM43.0 °F24.1 °F47 %29.96 in10.0 miENE (60°)12.7 mphClear
7:53 PM39.9 °F25.0 °F55 %29.95 in10.0 miNE (50°)11.5 mphClear
8:53 PM39.0 °F24.1 °F55 %29.94 in10.0 miNE (50°)13.8 mphClear
9:53 PM37.9 °F25.0 °F60 %29.96 in10.0 miNNE (30°)16.1 mph21.9 mphClear
10:53 PM35.1 °F25.0 °F67 %29.95 in10.0 miNNE (30°)13.8 mphOvercast
11:53 PM34.0 °F25.0 °F70 %29.94 in10.0 miNE (40°)16.1 mph24.2 mphOvercast
Hourly data recorded from KCMI, located miles away from Champaign, Illinois







STORIES FROM OUR PARTNERS